Dewpoint
54 56 59 59 60 61 63 65 66 68 69 69 71 72 72 73 71 66 64 64 62 62 62 63 64 63 63 61 62 63 64 64 64
53 56 58 60 61 62 63 64 66 68 69 69 71 71 72 70 68 64 63 63 62 62 63 62 63 62 63 61 61 64 64 63 64
51 54 58 59 62 62 63 64 65 67 68 69 70 70 70 68 66 63 62 62 62 61 61 62 62 62 62 62 62 63 64 63 63
49 52 56 58 62 63 64 64 65 67 68 69 70 69 67 65 63 62 61 62 62 61 61 62 62 62 62 62 62 63 63 63 63
48 52 56 58 61 63 64 64 64 66 67 68 69 69 66 64 61 62 61 62 63 62 62 62 62 62 63 63 63 63 63 63 64
49 53 56 57 60 62 63 63 64 65 67 67 68 68 65 63 62 63 63 63 63 63 62 61 61 63 63 62 62 61 61 63 63
49 52 55 57 58 60 61 62 64 65 66 67 68 66 64 63 63 62 64 64 63 63 62 62 62 62 62 61 60 60 61 62 62
51 50 52 56 57 59 60 61 63 64 65 67 67 66 64 64 64 64 64 64 64 63 62 62 62 62 61 61 60 59 62 63 62
50 51 50 51 55 58 59 60 61 64 66 66 68 67 65 66 65 65 65 65 65 63 62 62 62 61 61 61 60 60 61 63 62
48 49 51 52 52 55 56 58 61 64 66 68 68 67 67 66 65 64 64 65 65 63 62 62 61 61 61 61 62 59 59 61 64
47 50 53 53 53 55 57 58 60 64 66 68 68 68 68 66 64 64 64 63 62 63 62 61 61 62 62 62 62 58 58 60 63
48 52 54 56 56 56 59 61 62 64 66 67 68 68 66 66 65 64 65 63 63 62 63 63 62 63 63 62 62 58 57 59 62
48 51 53 55 57 59 61 63 64 64 65 67 67 67 66 66 65 63 63 64 64 63 63 63 64 63 62 60 62 58 58 58 61
53 56 57 59 62 63 63 64 65 64 64 65 67 66 66 67 66 66 65 64 63 63 64 63 63 62 60 61 62 62 57 54 59
54 55 57 59 61 63 65 64 64 63 64 65 66 66 66 65 65 65 63 61 61 62 61 60 60 61 59 59 61 56 55 52 54
57 59 60 63 64 64 63 63 64 63 63 64 64 63 63 64 63 63 62 61 61 61 60 60 60 61 61 62 58 55 51 51 51
58 60 61 63 63 62 61 62 62 63 64 64 63 62 62 63 63 62 61 62 62 61 60 59 61 61 61 59 56 54 51 50 50
60 60 62 62 61 61 62 63 62 63 64 62 61 61 61 61 61 62 62 61 60 61 59 57 61 60 59 56 54 51 48 48 48
61 61 62 61 61 62 62 61 62 62 62 62 62 61 60 60 61 61 60 54 52 46 45 45 44 46 51 50 47 43 42 40 40
59 61 62 62 61 61 61 61 61 62 61 60 60 60 58 56 56 59 57 55 54 52 47 43 41 41 41 41 41 40 40 39 39
Lifted_Index
-2 -3 -4 -4 -4 -5 -5 -5 -5 -4 -4 -5 -5 -6 -6 -6 -6 -7 -6 -5 -3 -2 -0 1 2 2 3 3 4 3 3 3 3
-2 -3 -3 -4 -4 -5 -5 -5 -5 -5 -5 -5 -5 -6 -6 -6 -7 -7 -6 -3 -1 -1 0 1 2 2 3 3 4 3 3 3 3
-2 -2 -3 -4 -4 -4 -5 -5 -5 -5 -5 -6 -6 -6 -6 -6 -7 -7 -4 -1 0 1 1 2 2 3 3 3 3 3 3 3 3
-1 -1 -2 -3 -4 -4 -4 -5 -5 -5 -5 -6 -6 -6 -6 -6 -6 -6 -3 0 1 1 1 2 2 2 2 2 2 2 2 2 2
-0 -1 -1 -2 -3 -4 -4 -4 -5 -5 -5 -6 -6 -6 -5 -5 -5 -5 -3 0 1 1 1 1 2 2 2 2 2 2 2 2 2
-0 -0 -1 -2 -3 -3 -4 -4 -5 -5 -5 -5 -6 -6 -6 -5 -5 -5 -3 -1 0 0 0 1 2 1 1 1 2 2 2 2 2
-0 -0 -1 -1 -2 -3 -3 -4 -4 -5 -5 -5 -6 -6 -6 -6 -6 -5 -3 -2 -0 -0 0 1 1 1 1 1 2 2 2 2 2
-0 -0 -0 -1 -1 -2 -2 -3 -3 -4 -5 -5 -5 -5 -5 -5 -6 -5 -4 -2 -1 -1 -1 -0 -0 0 0 1 1 2 2 1 1
-1 -0 -0 -0 -1 -1 -1 -2 -2 -3 -4 -5 -5 -5 -5 -5 -6 -5 -3 -2 -1 -1 -2 -2 -1 -1 -0 0 1 1 1 1 1
-1 -0 -0 -1 -1 -1 -1 -1 -2 -3 -4 -5 -5 -5 -5 -5 -5 -5 -3 -2 -1 -2 -2 -2 -1 -1 -0 -0 -0 -0 -0 0 0
-0 -0 -1 -1 -1 -1 -1 -1 -2 -3 -4 -5 -5 -5 -5 -5 -5 -5 -3 -2 -1 -2 -2 -1 -1 -1 -1 -1 -1 -1 -1 -1 -0
0 -0 -1 -1 -2 -2 -1 -2 -2 -3 -4 -4 -5 -5 -5 -5 -5 -5 -3 -2 -1 -1 -2 -1 -1 -1 -1 -1 -1 -1 -1 -1 -1
0 -0 -1 -1 -2 -2 -2 -2 -3 -3 -4 -4 -5 -5 -5 -6 -5 -4 -3 -2 -1 -2 -2 -2 -1 -1 -1 -0 -0 -1 -1 -1 -1
1 0 -0 -1 -2 -2 -3 -3 -3 -4 -4 -4 -5 -5 -6 -6 -5 -4 -3 -2 -2 -2 -2 -1 -1 -0 0 1 1 0 -1 -1 -1
1 0 -0 -1 -2 -3 -3 -3 -3 -4 -4 -4 -5 -5 -5 -5 -4 -3 -2 -2 -1 -2 -1 -1 0 1 1 1 1 0 -0 -1 -1
-0 -0 -1 -2 -3 -3 -3 -4 -4 -4 -4 -4 -4 -5 -5 -4 -3 -3 -2 -1 -1 -1 -1 -0 1 1 1 0 -0 -0 -0 -0 -0
-1 -2 -2 -2 -3 -3 -4 -4 -4 -4 -4 -5 -4 -4 -4 -3 -2 -2 -2 -1 -0 0 0 0 0 1 0 -0 -0 -0 -0 0 1
-2 -2 -2 -3 -3 -4 -4 -4 -4 -4 -4 -4 -3 -3 -2 -2 -2 -1 -1 -0 0 1 1 0 -0 -0 -0 -0 -0 0 1 1 2
-2 -3 -3 -3 -3 -4 -4 -4 -3 -3 -3 -3 -2 -1 -1 -1 -1 -0 -0 0 1 1 1 -0 -1 -1 -0 0 1 1 1 2 3
-2 -2 -3 -3 -3 -4 -4 -4 -3 -3 -2 -2 -1 -0 0 0 0 0 1 1 1 1 1 -0 -1 -0 0 1 1 1 2 3 3